Regional Weather Roundup
Issued by NWS Goodland, KS

Home | Current Version | Previous Version | Graphics & Text | Print | Product List | Glossary Off
Versions: 1 2 3 4 5 6 7 8 9 10 11 12 13 14 15 16 17 18 19 20 21 22 23 24 25 26 27 28 29 30 31 32 33 34 35 36 37 38 39 40 41 42 43 44 45 46 47 48 49 50

000
ASUS43 KGLD 022059
RWRGLD

GOODLAND FORECAST AREA HOURLY WEATHER ROUNDUP
NATIONAL WEATHER SERVICE GOODLAND KS
300 PM MDT TUE SEP 02 2014

...OFFICIAL OBSERVATIONS...

CITY           SKY/WX    TMP DP  RH WIND       PRES   REMARKS
GOODLAND KS    MOSUNNY   84  56  38 S18G29    30.01F
HILL CITY KS   SUNNY     87  57  35 S18G25    29.97F
IMPERIAL NEB   SUNNY     85  54  34 S17G23    29.97F
MCCOOK NEB     SUNNY     87  54  32 S16G23    29.96F
AKRON CO       SUNNY     82  55  39 S14G25    30.01F
BURLINGTON CO  MOSUNNY   84  51  31 S21G30    30.02F
LIMON CO       SUNNY     80  54  40 SE15      30.07F
$$

...UNOFFICIAL OBSERVATIONS...

CITY           SKY/WX    TMP DP  RH WIND       PRES   REMARKS
COLBY KS       SUNNY     86  61  42 S14G22    30.00F
NORTON KS      SUNNY     88  48  25 SE16G22   29.96F
SHARON SPRINGS   N/A     85  64  49 S15G23      N/A
WAKEENEY KS      N/A     84  60  43 MISG        N/A
KIT CARSON CO    N/A     85  54  34 N13         N/A
YUMA CO          N/A     82  57  42 S16G25      N/A
$$



USA.gov is the U.S. government's official web portal to all federal, state and local government web resources and services.